CZ-6A DEB, 54407

Orbit data source: Space-Track

CZ-6A DEB, 54407 is space debris in SSO originally from a launch on Fri, 11 Nov 2022 UTC launched from the Taiyaun Space Center, China (TSC). Debris objects in space refer to the collection of defunct objects orbiting the Earth. Examples of debris include non-operational satellites, rocket bodies, and fragments generated from explosions, collisions, or faulty payload assembly.

Loading next visibility...
Identifier
54407, 2022-151EF
Orbit
SSO
Country
Flag of CNCN / PRC
Related business
Manufacturer
SAST
Mission
Spacecraft
Bus & Motor
Unknown
Mass
Unknown
Launch date (UTC)
2022-11-11 (4 years ago)
Launch vehicle
Unknown
Launch site
Taiyaun Space Center, China (TSC)
Object type
Payload
Rocket body
Debris
Shape & HBR
Unknown shape, 0.2 m
Radar Cross Section
Medium (>0.1 m² and <1 m²)

Expand to show TLE details & history
Last TLE update: 3 days ago

TLE from 3 days ago
0 CZ-6A DEB
1 54407U 22151EF  26170.92064748  .00001362  00000-0  63455-3 0  9995
2 54407  98.7695 178.5876 0041816 325.0874  34.7562 14.21701216186082
Epoch: 2026-06-19T22:05Z
TLE epoch observation values (Epoch: 2026-06-19T22:05:43.942Z)
Latitude
-0.00003°
Longitude
-60.98819°
Altitude
797.828 km
Speed
7.467 km/s
True Right ascension
11h 54m 21s
True Declination
0° 00' 00"
Sunlit
Object was in daylight at epoch
Visualization orbit readout
Latitude
Unknown
Longitude
Unknown
Altitude
Unknown
Speed
Unknown
Apparent Right ascension
Unknown
Apparent Declination
Unknown
Sunlit
N/A
Visualization observer readout
Local Sidereal Time
21:41:11
Azimuth
Unknown
Elevation
Unknown
Doppler factor
Unknown
Orbital elements
Apogee altitude
846.85 km
Perigee altitude
786.678 km
Semi-major axis
7,194.901 km
Eccentricity
0.00418
Inclination
98.7695°
RAAN
178.5876°
Arg. of periapsis
325.0874°
True anomaly
35.03055°
Mean anomaly
34.7562°
Eccentric anomaly
34.89326°
Mean motion
3.55636 °/min
Orbital period
101.23 mins
BSTAR
0.00063455
Loading maneuver chart data...
Computing Atmospheric mass density...
Loading historical data...
Loading historical data...
Loading historical data...
Loading historical data...
Loading historical data...
Loading historical data...
Loading historical data...

Documentation

Showing up to 5 results
|